Showing default

COSMOS 2502, 40358

Orbit data source: Space-Track

COSMOS 2502, 40358 is a payload satellite owned by VVKO (CIS) in LEO that was launched on Thu, 25 Dec 2014 UTC via a SOYUZ-2-1B launch vehicle from the Plesetsk Missile And Space Complex (PKMTR). Payload-class satellites include a variety of spacecraft equipped with specific instruments for various scientific and technological missions. These include communications satellites like Starlink; space stations such as the ISS; scientific satellites like the Hubble; Earth observation satellites from companies like Planet Labs, Umbra, and HawkEye 360; GPS; miniature CubeSats for education and research; and military/defense satellites.

Loading next visibility...
Identifier
40358, 2014-086A
Orbit
LEO
Country
Flag of CISCIS
Related business
Manufacturer
TSSKBP/ARSLO
Mission
Operational Defense SIGINT
Bus & Motor
YANTAR'-LOTOS, 11D428
Mass
6,575 kg wet, ~6,500 kg dry
Launch date (UTC)
2014-12-25 (11 years ago)
Launch vehicle
SOYUZ-2-1B
Launch site
Plesetsk Missile And Space Complex (PKMTR)
Object type
Payload
Rocket body
Debris
Shape & HBR
Cyl + 2 Pan, 3.1 m
Radar Cross Section
16.222 m², Large (>1 m²)

Expand to show TLE details & history
Last TLE update: 10 hours ago

TLE from 10 hours ago
0 COSMOS 2502
1 40358U 14086A   25309.32897786  .00000040  00000-0  81396-4 0  9993
2 40358  67.1512 192.2704 0004644 288.2517  71.8063 13.97783229552660
Epoch: 2025-11-05T07:53Z
TLE epoch observation values (Epoch: 2025-11-05T07:53:43.687Z)
Latitude
0.00004°
Longitude
29.03517°
Altitude
902.537 km
Speed
7.402 km/s
True Right ascension
12h 49m 04s
True Declination
0° 00' 00"
Sunlit
Object was in daylight at epoch
Visualization orbit readout
Latitude
Unknown
Longitude
Unknown
Altitude
Unknown
Speed
Unknown
Apparent Right ascension
Unknown
Apparent Declination
Unknown
Sunlit
N/A
Visualization observer readout
Local Sidereal Time
13:38:46
Azimuth
Unknown
Elevation
Unknown
Doppler factor
Unknown
Orbital elements
Apogee altitude
903.21 km
Perigee altitude
896.45 km
Semi-major axis
7,277.967 km
Eccentricity
0.00046
Inclination
67.1512°
RAAN
192.2704°
Arg. of periapsis
288.2517°
True anomaly
71.85687°
Mean anomaly
71.8063°
Eccentric anomaly
71.83158°
Mean motion
3.49565 °/min
Orbital period
102.99 mins
BSTAR
0.000081396
Loading maneuver chart data...
Computing Atmospheric mass density...
Loading historical data...
Loading historical data...
Loading historical data...
Loading historical data...
Loading historical data...
Loading historical data...
Loading historical data...
Other satellites on launch #86 in the year 2014 (2014-12-25 UTC)

Documentation

Showing up to 5 results
|